Location: Azat
(46.0765°N, 1.7600°E)
Time: 22:32:29
(UTC+00:00)

ADEOS Rocket - Pass Details

Date: 09 April 2020
Orbit: 858 x 1307 km, 98.7° (Epoch: 05 June)

Event Time Altitude Azimuth Distance (km) Brightness Sun altitude
Rises 19:00:48 0° 11° (N) 3,863 6.2 -5.5°
Reaches altitude 10° 19:03:29 10° 7° (N) 2,839 5.6 -6.0°
Maximum altitude 19:09:38 56° 291° (WNW) 1,125 3.8 -7.0°
Drops below altitude 10° 19:15:12 10° 215° (SW) 2,575 5.4 -7.9°
Sets 19:17:32 0° 211° (SSW) 3,477 6.0 -8.3°
